| time (UTC) | temp C | wind direction | speed KPH | gust KPH | rain 1hr cm | rain 24hr cm | rain mn cm | humidity % | barometer mb |
| 20260905171518 | 28 | 340 | 0.0 | 1.6 | 0.00 | 6.12 | 0.03 | 85 | 1014.8 |
| 20260905171317 | 28 | 31 | 0.0 | 1.6 | 0.00 | 6.12 | 0.03 | 85 | 1014.8 |
| 20260905170835 | 28 | 356 | 0.0 | 0.0 | 0.00 | 6.12 | 0.03 | 85 | 1015.0 |
| 20260905170332 | 28 | 309 | 0.0 | 3.2 | 0.00 | 6.12 | 0.03 | 85 | 1015.0 |
| 20260905170059 | 28 | 3 | 0.0 | 8.0 | 0.00 | 6.12 | 0.03 | 85 | 1014.9 |
| 20260905170002 | 28 | 3 | 0.0 | 8.0 | 0.00 | 6.12 | 0.03 | 84 | 1014.8 |
| 20260905165830 | 28 | 13 | 0.0 | 8.0 | 0.00 | 6.12 | 0.03 | 84 | 1014.9 |
| 20260905165328 | 28 | 12 | 3.2 | 8.0 | 0.00 | 6.12 | 0.03 | 83 | 1015.0 |
| 20260905164827 | 30 | 359 | 1.6 | 6.4 | 0.00 | 6.12 | 0.03 | 83 | 1015.2 |
| 20260905164545 | 30 | 1 | 0.0 | 6.4 | 0.00 | 6.12 | 0.03 | 82 | 1015.1 |
| 20260905164326 | 30 | 304 | 1.6 | 6.4 | 0.00 | 6.12 | 0.03 | 82 | 1015.2 |
| 20260905163824 | 31 | 29 | 0.0 | 8.0 | 0.00 | 6.12 | 0.03 | 81 | 1015.2 |
| 20260905163320 | 32 | 328 | 0.0 | 8.0 | 0.00 | 6.12 | 0.03 | 80 | 1015.3 |
| 20260905163029 | 32 | 34 | 1.6 | 11.3 | 0.00 | 6.12 | 0.03 | 79 | 1015.3 |
| 20260905162818 | 32 | 344 | 0.0 | 11.3 | 0.00 | 6.12 | 0.03 | 79 | 1015.4 |
| 20260905162315 | 33 | 129 | 6.4 | 11.3 | 0.00 | 6.12 | 0.03 | 77 | 1015.3 |
| 20260905161815 | 33 | 140 | 1.6 | 12.9 | 0.00 | 6.12 | 0.03 | 78 | 1015.3 |
| 20260905161512 | 32 | 154 | 0.0 | 12.9 | 0.00 | 6.12 | 0.03 | 79 | 1015.3 |
| 20260905161333 | 32 | 108 | 1.6 | 12.9 | 0.00 | 6.12 | 0.03 | 78 | 1015.4 |
| 20260905160829 | 32 | 152 | 4.8 | 11.3 | 0.00 | 6.12 | 0.03 | 78 | 1015.4 |
| 20260905160326 | 32 | 133 | 3.2 | 8.0 | 0.00 | 6.12 | 0.03 | 77 | 1015.3 |
| 20260905160053 | 32 | 95 | 1.6 | 8.0 | 0.00 | 6.12 | 0.03 | 78 | 1015.3 |
| 20260905155823 | 33 | 174 | 3.2 | 8.0 | 0.00 | 6.12 | 0.03 | 79 | 1015.5 |
| 20260905155320 | 32 | 122 | 1.6 | 8.0 | 0.00 | 6.12 | 0.03 | 81 | 1015.6 |
| 20260905154836 | 32 | 146 | 0.0 | 8.0 | 0.00 | 6.12 | 0.03 | 82 | 1015.7 |
| 20260905154510 | 32 | 312 | 0.0 | 8.0 | 0.00 | 6.12 | 0.03 | 82 | 1015.6 |
| 20260905154314 | 32 | 308 | 0.0 | 8.0 | 0.00 | 6.12 | 0.03 | 81 | 1015.8 |
| 20260905153833 | 32 | 157 | 1.6 | 6.4 | 0.00 | 6.12 | 0.03 | 81 | 1015.8 |
| 20260905153333 | 32 | 214 | 1.6 | 11.3 | 0.00 | 6.12 | 0.03 | 82 | 1015.8 |
| 20260905153056 | 31 | 134 | 1.6 | 11.3 | 0.00 | 6.12 | 0.03 | 82 | 1015.8 |
| 20260905152833 | 32 | 129 | 4.8 | 11.3 | 0.00 | 6.12 | 0.03 | 81 | 1015.9 |
| 20260905152331 | 31 | 161 | 0.0 | 0.0 | 0.00 | 6.12 | 0.03 | 83 | 1015.9 |
| 20260905151829 | 31 | 161 | 0.0 | 0.0 | 0.00 | 6.12 | 0.03 | 82 | 1015.8 |
| 20260905151545 | 31 | 161 | 0.0 | 0.0 | 0.00 | 6.12 | 0.03 | 82 | 1015.7 |
| 20260905151329 | 31 | 161 | 0.0 | 0.0 | 0.00 | 6.12 | 0.03 | 82 | 1015.8 |
| 20260905150826 | 32 | 161 | 0.0 | 0.0 | 0.00 | 6.12 | 0.03 | 82 | 1015.8 |
| 20260905150323 | 32 | 136 | 0.0 | 1.6 | 0.00 | 6.12 | 0.03 | 82 | 1015.7 |
| 20260905150031 | 32 | 134 | 0.0 | 6.4 | 0.00 | 6.12 | 0.03 | 81 | 1015.6 |
| 20260905145841 | 32 | 134 | 0.0 | 6.4 | 0.00 | 6.12 | 0.03 | 81 | 1015.9 |
| 20260905145337 | 32 | 130 | 1.6 | 6.4 | 0.00 | 6.12 | 0.03 | 81 | 1015.8 |
| 20260905144834 | 32 | 148 | 1.6 | 9.7 | 0.00 | 6.12 | 0.03 | 81 | 1015.7 |
| 20260905144532 | 31 | 146 | 4.8 | 9.7 | 0.00 | 6.12 | 0.03 | 81 | 1015.6 |
| 20260905144333 | 32 | 151 | 4.8 | 9.7 | 0.00 | 6.12 | 0.03 | 81 | 1015.7 |
| 20260905143830 | 32 | 148 | 3.2 | 6.4 | 0.00 | 6.12 | 0.03 | 81 | 1015.6 |
| 20260905143343 | 32 | 122 | 0.0 | 6.4 | 0.00 | 6.12 | 0.03 | 81 | 1015.5 |
| 20260905143101 | 32 | 143 | 0.0 | 6.4 | 0.00 | 6.12 | 0.03 | 81 | 1015.4 |
| 20260905143003 | 32 | 113 | 1.6 | 6.4 | 0.00 | 6.12 | 0.03 | 81 | 1015.4 |
| 20260905142821 | 32 | 152 | 3.2 | 6.4 | 0.00 | 6.12 | 0.03 | 81 | 1015.5 |
| 20260905142337 | 32 | 159 | 0.0 | 4.8 | 0.00 | 6.12 | 0.03 | 82 | 1015.6 |
| 20260905141836 | 32 | 356 | 0.0 | 0.0 | 0.00 | 6.12 | 0.03 | 83 | 1015.5 |
| 20260905141504 | 31 | 143 | 0.0 | 0.0 | 0.00 | 6.12 | 0.03 | 83 | 1015.4 |
| 20260905141332 | 31 | 143 | 0.0 | 0.0 | 0.00 | 6.12 | 0.03 | 83 | 1015.5 |
| 20260905140830 | 31 | 144 | 0.0 | 1.6 | 0.00 | 6.12 | 0.03 | 83 | 1015.5 |
| 20260905140326 | 30 | 144 | 0.0 | 1.6 | 0.00 | 6.12 | 0.03 | 83 | 1015.7 |
| 20260905140051 | 30 | 144 | 0.0 | 1.6 | 0.00 | 6.12 | 0.03 | 83 | 1015.5 |
| 20260905135824 | 31 | 138 | 0.0 | 3.2 | 0.00 | 6.12 | 0.03 | 83 | 1015.6 |
| 20260905135322 | 31 | 124 | 0.0 | 4.8 | 0.00 | 6.12 | 0.03 | 83 | 1015.7 |
| 20260905134817 | 31 | 119 | 1.6 | 8.0 | 0.00 | 6.12 | 0.03 | 83 | 1015.6 |
| 20260905134516 | 31 | 133 | 1.6 | 8.0 | 0.00 | 6.12 | 0.03 | 83 | 1015.6 |
| 20260905134334 | 32 | 147 | 1.6 | 4.8 | 0.00 | 6.12 | 0.03 | 82 | 1015.7 |
| 20260905133853 | 32 | 144 | 1.6 | 4.8 | 0.00 | 6.12 | 0.03 | 83 | 1015.7 |
| 20260905133328 | 31 | 173 | 0.0 | 6.4 | 0.00 | 6.12 | 0.03 | 83 | 1015.7 |
| 20260905133040 | 31 | 112 | 1.6 | 6.4 | 0.00 | 6.12 | 0.03 | 83 | 1015.6 |
| 20260905132824 | 31 | 148 | 3.2 | 6.4 | 0.00 | 6.12 | 0.03 | 83 | 1015.6 |
| 20260905132341 | 31 | 158 | 0.0 | 4.8 | 0.00 | 6.12 | 0.03 | 84 | 1015.7 |
| 20260905131837 | 32 | 137 | 0.0 | 1.6 | 0.00 | 6.12 | 0.03 | 84 | 1015.6 |
| 20260905131603 | 31 | 133 | 0.0 | 1.6 | 0.00 | 6.12 | 0.03 | 85 | 1015.5 |
| 20260905131353 | 31 | 156 | 0.0 | 1.6 | 0.00 | 6.12 | 0.03 | 86 | 1015.8 |
| 20260905130830 | 31 | 140 | 0.0 | 1.6 | 0.00 | 6.12 | 0.03 | 89 | 1015.8 |
| 20260905130346 | 30 | 140 | 0.0 | 1.6 | 0.00 | 6.12 | 0.03 | 91 | 1015.8 |
| 20260905130057 | 30 | 159 | 0.0 | 1.6 | 0.00 | 6.12 | 0.03 | 92 | 1015.6 |
| 20260905125820 | 30 | 134 | 0.0 | 0.0 | 0.00 | 6.12 | 0.03 | 93 | 1015.8 |
| 20260905125316 | 30 | 134 | 0.0 | 0.0 | 0.00 | 6.12 | 0.03 | 94 | 1015.9 |
| 20260905124831 | 29 | 134 | 0.0 | 0.0 | 0.00 | 6.12 | 0.03 | 95 | 1015.9 |
| 20260905124536 | 28 | 134 | 0.0 | 0.0 | 0.00 | 6.12 | 0.03 | 94 | 1015.8 |
| 20260905124329 | 28 | 134 | 0.0 | 0.0 | 0.00 | 6.12 | 0.03 | 95 | 1015.9 |
| 20260905123844 | 28 | 134 | 0.0 | 0.0 | 0.00 | 6.12 | 0.03 | 95 | 1015.9 |
| 20260905123336 | 28 | 134 | 0.0 | 0.0 | 0.00 | 6.12 | 0.03 | 95 | 1015.9 |
| 20260905123032 | 27 | 134 | 0.0 | 0.0 | 0.00 | 6.12 | 0.03 | 95 | 1015.9 |
| 20260905122832 | 27 | 134 | 0.0 | 0.0 | 0.00 | 6.12 | 0.03 | 95 | 1016.0 |
| 20260905122329 | 27 | 134 | 0.0 | 0.0 | 0.00 | 6.12 | 0.03 | 95 | 1015.9 |
| 20260905121826 | 27 | 133 | 0.0 | 0.0 | 0.00 | 6.12 | 0.03 | 95 | 1015.9 |
| 20260905121525 | 27 | 134 | 0.0 | 0.0 | 0.00 | 6.12 | 0.03 | 95 | 1015.7 |
| 20260905121322 | 27 | 134 | 0.0 | 1.6 | 0.00 | 6.12 | 0.03 | 95 | 1015.8 |
| 20260905120838 | 26 | 134 | 0.0 | 1.6 | 0.00 | 6.12 | 0.03 | 95 | 1015.7 |
| 20260905120353 | 26 | 134 | 0.0 | 0.0 | 0.00 | 6.12 | 0.03 | 95 | 1015.8 |
| 20260905120048 | 26 | 134 | 0.0 | 0.0 | 0.00 | 6.12 | 0.03 | 95 | 1015.6 |
| 20260905115830 | 26 | 134 | 0.0 | 0.0 | 0.00 | 6.12 | 0.03 | 95 | 1015.7 |
| 20260905115325 | 26 | 134 | 0.0 | 0.0 | 0.00 | 6.12 | 0.03 | 95 | 1015.6 |
| 20260905114823 | 26 | 134 | 0.0 | 0.0 | 0.00 | 6.12 | 0.03 | 95 | 1015.5 |
| 20260905114535 | 26 | 133 | 0.0 | 0.0 | 0.00 | 6.12 | 0.03 | 95 | 1015.4 |
| 20260905114320 | 26 | 134 | 0.0 | 0.0 | 0.00 | 6.12 | 0.03 | 95 | 1015.5 |
| 20260905113817 | 26 | 134 | 0.0 | 0.0 | 0.00 | 6.12 | 0.03 | 95 | 1015.4 |
| 20260905113315 | 26 | 134 | 0.0 | 0.0 | 0.00 | 6.12 | 0.03 | 95 | 1015.3 |
| 20260905113019 | 26 | 134 | 0.0 | 0.0 | 0.00 | 6.12 | 0.03 | 95 | 1015.1 |
| 20260905112832 | 26 | 134 | 0.0 | 0.0 | 0.00 | 6.12 | 0.03 | 95 | 1015.3 |
| 20260905112329 | 26 | 134 | 0.0 | 0.0 | 0.00 | 6.12 | 0.03 | 95 | 1015.2 |
| 20260905111846 | 26 | 134 | 0.0 | 0.0 | 0.00 | 6.12 | 0.03 | 95 | 1015.0 |
| 20260905111544 | 25 | 134 | 0.0 | 0.0 | 0.00 | 6.12 | 0.03 | 95 | 1015.0 |
| 20260905111320 | 26 | 134 | 0.0 | 0.0 | 0.00 | 6.12 | 0.03 | 95 | 1015.1 |
| 20260905110818 | 26 | 134 | 0.0 | 0.0 | 0.00 | 6.12 | 0.03 | 95 | 1015.1 |
| 20260905110317 | 26 | 134 | 0.0 | 0.0 | 0.00 | 6.12 | 0.03 | 95 | 1015.1 |
| 20260905110026 | 25 | 134 | 0.0 | 0.0 | 0.00 | 6.12 | 0.03 | 95 | 1015.0 |
| 20260905105833 | 26 | 134 | 0.0 | 0.0 | 0.00 | 6.12 | 0.03 | 95 | 1015.0 |
| 20260905105351 | 26 | 134 | 0.0 | 0.0 | 0.00 | 6.12 | 0.03 | 95 | 1015.1 |
| 20260905104827 | 26 | 134 | 0.0 | 0.0 | 0.00 | 6.12 | 0.03 | 95 | 1015.1 |
| 20260905104601 | 26 | 134 | 0.0 | 0.0 | 0.00 | 6.12 | 0.03 | 95 | 1014.9 |
| 20260905104324 | 26 | 134 | 0.0 | 0.0 | 0.00 | 6.12 | 0.03 | 95 | 1015.0 |
| 20260905103821 | 26 | 134 | 0.0 | 0.0 | 0.00 | 6.12 | 0.03 | 95 | 1015.1 |
| 20260905103317 | 26 | 134 | 0.0 | 0.0 | 0.00 | 6.12 | 0.03 | 95 | 1015.1 |
| 20260905103037 | 26 | 134 | 0.0 | 0.0 | 0.00 | 6.12 | 0.03 | 95 | 1015.0 |
| 20260905102815 | 26 | 134 | 0.0 | 0.0 | 0.00 | 6.12 | 0.03 | 95 | 1015.0 |
| 20260905102333 | 26 | 134 | 0.0 | 0.0 | 0.00 | 6.12 | 0.03 | 95 | 1015.0 |
| 20260905101829 | 26 | 134 | 0.0 | 0.0 | 0.00 | 6.12 | 0.03 | 95 | 1015.1 |
| 20260905101551 | 26 | 134 | 0.0 | 0.0 | 0.00 | 6.12 | 0.03 | 95 | 1015.0 |
| 20260905101325 | 26 | 134 | 0.0 | 0.0 | 0.00 | 6.12 | 0.03 | 95 | 1015.0 |
| 20260905100822 | 26 | 134 | 0.0 | 0.0 | 0.00 | 6.12 | 0.03 | 95 | 1015.0 |
| 20260905100318 | 26 | 134 | 0.0 | 0.0 | 0.00 | 6.12 | 0.03 | 95 | 1014.9 |
| 20260905100037 | 26 | 134 | 0.0 | 0.0 | 0.00 | 6.12 | 0.03 | 95 | 1014.9 |
| 20260905095817 | 26 | 134 | 0.0 | 0.0 | 0.00 | 6.12 | 0.03 | 95 | 1014.8 |
| 20260905095314 | 26 | 134 | 0.0 | 0.0 | 0.00 | 6.12 | 0.03 | 95 | 1014.8 |
| 20260905094832 | 26 | 134 | 0.0 | 0.0 | 0.00 | 6.12 | 0.03 | 95 | 1014.7 |
| 20260905094522 | 26 | 134 | 0.0 | 0.0 | 0.00 | 6.12 | 0.03 | 95 | 1014.6 |
| 20260905094329 | 26 | 134 | 0.0 | 0.0 | 0.00 | 6.12 | 0.03 | 95 | 1014.8 |
| 20260905093824 | 26 | 134 | 0.0 | 0.0 | 0.00 | 6.12 | 0.03 | 95 | 1014.7 |
| 20260905093322 | 26 | 134 | 0.0 | 0.0 | 0.00 | 6.12 | 0.03 | 95 | 1014.6 |
| 20260905093011 | 26 | 134 | 0.0 | 0.0 | 0.00 | 6.12 | 0.03 | 95 | 1014.6 |
| 20260905092819 | 26 | 134 | 0.0 | 0.0 | 0.00 | 6.12 | 0.03 | 95 | 1014.7 |
| 20260905092317 | 26 | 134 | 0.0 | 0.0 | 0.00 | 6.12 | 0.03 | 95 | 1014.6 |
| 20260905091832 | 26 | 134 | 0.0 | 1.6 | 0.00 | 6.12 | 0.03 | 95 | 1014.6 |
| 20260905091531 | 26 | 134 | 0.0 | 1.6 | 0.00 | 6.12 | 0.03 | 95 | 1014.5 |
| 20260905091328 | 26 | 134 | 0.0 | 1.6 | 0.00 | 6.12 | 0.03 | 95 | 1014.6 |
| 20260905090826 | 26 | 134 | 0.0 | 0.0 | 0.00 | 6.12 | 0.03 | 95 | 1014.7 |
| 20260905090323 | 26 | 134 | 0.0 | 0.0 | 0.00 | 6.12 | 0.03 | 95 | 1014.6 |
| 20260905090020 | 26 | 134 | 0.0 | 0.0 | 0.00 | 6.12 | 0.03 | 95 | 1014.5 |
| 20260905085822 | 26 | 134 | 0.0 | 0.0 | 0.00 | 6.12 | 0.03 | 95 | 1014.6 |
| 20260905085321 | 26 | 134 | 0.0 | 0.0 | 0.00 | 6.12 | 0.03 | 95 | 1014.6 |
| 20260905084817 | 26 | 134 | 0.0 | 0.0 | 0.00 | 6.12 | 0.03 | 95 | 1014.6 |
| 20260905084515 | 26 | 134 | 0.0 | 0.0 | 0.00 | 6.12 | 0.03 | 95 | 1014.6 |
| 20260905084358 | 26 | 134 | 0.0 | 0.0 | 0.00 | 6.12 | 0.03 | 95 | 1014.7 |
| 20260905083834 | 26 | 134 | 0.0 | 0.0 | 0.00 | 6.12 | 0.03 | 95 | 1014.7 |
| 20260905083329 | 26 | 134 | 0.0 | 0.0 | 0.00 | 6.12 | 0.03 | 95 | 1014.7 |
| 20260905083008 | 26 | 134 | 0.0 | 0.0 | 0.00 | 6.12 | 0.03 | 95 | 1014.7 |
| 20260905082827 | 26 | 134 | 0.0 | 0.0 | 0.00 | 6.12 | 0.03 | 95 | 1014.8 |
| 20260905082324 | 26 | 134 | 0.0 | 0.0 | 0.00 | 6.12 | 0.03 | 95 | 1014.8 |
| 20260905081823 | 26 | 134 | 0.0 | 0.0 | 0.00 | 6.12 | 0.03 | 95 | 1014.8 |
| 20260905081537 | 26 | 134 | 0.0 | 0.0 | 0.00 | 6.12 | 0.03 | 95 | 1014.6 |
| 20260905081320 | 26 | 134 | 0.0 | 0.0 | 0.00 | 6.12 | 0.03 | 95 | 1014.7 |
| 20260905080817 | 26 | 134 | 0.0 | 0.0 | 0.00 | 6.12 | 0.03 | 95 | 1014.8 |
| 20260905080315 | 26 | 134 | 0.0 | 0.0 | 0.00 | 6.12 | 0.03 | 95 | 1014.7 |
| 20260905080031 | 26 | 133 | 0.0 | 0.0 | 0.00 | 6.12 | 0.03 | 95 | 1014.6 |
| 20260905075833 | 26 | 133 | 0.0 | 0.0 | 0.00 | 6.12 | 0.03 | 95 | 1014.7 |
| 20260905075351 | 26 | 134 | 0.0 | 0.0 | 0.00 | 6.12 | 0.03 | 95 | 1014.7 |
| 20260905074826 | 26 | 133 | 0.0 | 0.0 | 0.00 | 6.12 | 0.03 | 95 | 1014.7 |
| 20260905074540 | 26 | 134 | 0.0 | 0.0 | 0.00 | 6.12 | 0.03 | 95 | 1014.7 |
| 20260905074323 | 26 | 134 | 0.0 | 0.0 | 0.00 | 6.12 | 0.03 | 95 | 1014.8 |
| 20260905073821 | 26 | 133 | 0.0 | 0.0 | 0.00 | 6.12 | 0.03 | 95 | 1014.8 |
| 20260905073318 | 26 | 134 | 0.0 | 0.0 | 0.00 | 6.12 | 0.03 | 95 | 1014.7 |
| 20260905073006 | 26 | 134 | 0.0 | 0.0 | 0.00 | 6.12 | 0.03 | 95 | 1014.6 |
| 20260905072817 | 26 | 134 | 0.0 | 0.0 | 0.03 | 6.12 | 0.03 | 95 | 1014.7 |
| 20260905072314 | 26 | 134 | 0.0 | 0.0 | 0.03 | 6.12 | 0.03 | 95 | 1014.7 |
| 20260905071832 | 26 | 134 | 0.0 | 0.0 | 0.03 | 6.12 | 0.03 | 95 | 1014.7 |
| 20260905071552 | 26 | 134 | 0.0 | 0.0 | 0.03 | 6.12 | 0.03 | 94 | 1014.6 |
| 20260905071330 | 26 | 134 | 0.0 | 0.0 | 0.03 | 6.12 | 0.03 | 95 | 1014.8 |
| 20260905070848 | 26 | 134 | 0.0 | 0.0 | 0.03 | 6.12 | 0.03 | 95 | 1014.8 |
| 20260905070324 | 26 | 134 | 0.0 | 0.0 | 0.03 | 6.12 | 0.03 | 95 | 1014.8 |
| 20260905070028 | 26 | 134 | 0.0 | 0.0 | 0.03 | 6.12 | 0.03 | 95 | 1014.8 |
| 20260905065821 | 26 | 134 | 0.0 | 0.0 | 0.03 | 6.12 | 0.03 | 95 | 1014.9 |
| 20260905065318 | 26 | 134 | 0.0 | 0.0 | 0.03 | 6.12 | 0.03 | 95 | 1015.0 |
| 20260905064814 | 26 | 134 | 0.0 | 0.0 | 0.03 | 6.12 | 0.03 | 95 | 1015.1 |
| 20260905064558 | 26 | 134 | 0.0 | 0.0 | 0.03 | 6.12 | 0.03 | 95 | 1015.0 |
| 20260905064334 | 26 | 133 | 0.0 | 0.0 | 0.03 | 6.12 | 0.03 | 95 | 1015.1 |
| 20260905063851 | 26 | 134 | 0.0 | 0.0 | 0.03 | 6.12 | 0.03 | 95 | 1015.2 |
| 20260905063328 | 26 | 134 | 0.0 | 0.0 | 0.03 | 6.12 | 0.03 | 95 | 1015.2 |
| 20260905063018 | 26 | 134 | 0.0 | 0.0 | 0.00 | 6.10 | 0.03 | 95 | 1015.2 |
| 20260905062826 | 26 | 134 | 0.0 | 0.0 | 0.00 | 6.10 | 0.00 | 95 | 1015.4 |
| 20260905062322 | 26 | 134 | 0.0 | 0.0 | 0.00 | 6.10 | 0.00 | 94 | 1015.4 |
| 20260905061821 | 26 | 134 | 0.0 | 0.0 | 0.00 | 6.10 | 0.00 | 94 | 1015.5 |
| 20260905061504 | 26 | 134 | 0.0 | 0.0 | 0.00 | 6.10 | 0.00 | 94 | 1015.4 |
| 20260905061339 | 26 | 134 | 0.0 | 0.0 | 0.00 | 6.10 | 0.00 | 94 | 1015.5 |
| 20260905060834 | 26 | 134 | 0.0 | 0.0 | 0.00 | 6.10 | 0.00 | 94 | 1015.6 |
| 20260905060347 | 26 | 134 | 0.0 | 0.0 | 0.00 | 6.10 | 0.00 | 94 | 1015.6 |
| 20260905060100 | 26 | 134 | 0.0 | 0.0 | 0.00 | 6.10 | 0.00 | 94 | 1015.6 |
| 20260905060002 | 26 | 134 | 0.0 | 0.0 | 0.00 | 6.10 | 0.00 | 94 | 1015.6 |
| 20260905055824 | 26 | 134 | 0.0 | 0.0 | 0.00 | 6.10 | 0.00 | 94 | 1015.7 |
| 20260905055320 | 26 | 134 | 0.0 | 0.0 | 0.00 | 6.10 | 0.00 | 94 | 1015.8 |
| 20260905054818 | 26 | 134 | 0.0 | 0.0 | 0.00 | 6.10 | 0.00 | 94 | 1015.9 |
| 20260905054549 | 26 | 134 | 0.0 | 0.0 | 0.00 | 6.10 | 0.00 | 94 | 1015.7 |
| 20260905054337 | 26 | 134 | 0.0 | 0.0 | 0.00 | 6.10 | 0.00 | 94 | 1015.9 |
| 20260905053855 | 27 | 134 | 0.0 | 0.0 | 0.00 | 6.10 | 0.00 | 94 | 1015.9 |
| 20260905053329 | 27 | 134 | 0.0 | 0.0 | 0.00 | 6.10 | 0.00 | 94 | 1016.0 |
| 20260905053046 | 26 | 133 | 0.0 | 0.0 | 0.00 | 6.10 | 0.00 | 94 | 1015.9 |
| 20260905052825 | 27 | 134 | 0.0 | 0.0 | 0.00 | 6.10 | 0.00 | 94 | 1016.1 |
| 20260905052322 | 27 | 134 | 0.0 | 0.0 | 0.00 | 6.10 | 0.00 | 94 | 1016.0 |
| 20260905051820 | 27 | 134 | 0.0 | 0.0 | 0.00 | 6.10 | 0.00 | 94 | 1016.1 |
| 20260905051542 | 26 | 134 | 0.0 | 0.0 | 0.00 | 6.10 | 0.00 | 94 | 1016.0 |
| 20260905051318 | 27 | 134 | 0.0 | 0.0 | 0.00 | 6.10 | 0.00 | 94 | 1016.1 |
| 20260905050815 | 27 | 134 | 0.0 | 0.0 | 0.00 | 6.10 | 0.00 | 94 | 1016.1 |
| 20260905050331 | 27 | 134 | 0.0 | 0.0 | 0.00 | 6.10 | 0.00 | 94 | 1016.2 |
| 20260905050020 | 26 | 134 | 0.0 | 0.0 | 0.00 | 6.10 | 0.00 | 94 | 1016.0 |
| 20260905045827 | 26 | 134 | 0.0 | 0.0 | 0.00 | 6.10 | 0.00 | 94 | 1016.1 |
| 20260905045326 | 26 | 134 | 0.0 | 0.0 | 0.00 | 6.10 | 0.00 | 94 | 1016.2 |
| 20260905044823 | 26 | 134 | 0.0 | 0.0 | 0.00 | 6.10 | 0.00 | 94 | 1016.2 |
| 20260905044517 | 26 | 134 | 0.0 | 0.0 | 0.00 | 6.10 | 0.00 | 94 | 1016.1 |
| 20260905044320 | 27 | 134 | 0.0 | 0.0 | 0.00 | 6.10 | 0.00 | 94 | 1016.3 |
| 20260905043818 | 26 | 134 | 0.0 | 0.0 | 0.00 | 6.10 | 0.00 | 94 | 1016.2 |
| 20260905043315 | 27 | 134 | 0.0 | 0.0 | 0.00 | 6.10 | 0.00 | 94 | 1016.2 |
| 20260905043054 | 26 | 134 | 0.0 | 0.0 | 0.00 | 6.10 | 0.00 | 94 | 1016.1 |
| 20260905042859 | 27 | 134 | 0.0 | 0.0 | 0.00 | 6.10 | 0.00 | 94 | 1016.3 |
| 20260905042353 | 27 | 134 | 0.0 | 0.0 | 0.00 | 6.10 | 0.00 | 94 | 1016.3 |
| 20260905041830 | 27 | 134 | 0.0 | 0.0 | 0.00 | 6.10 | 0.00 | 94 | 1016.3 |
| 20260905041557 | 26 | 134 | 0.0 | 0.0 | 0.00 | 6.10 | 0.00 | 94 | 1016.3 |
| 20260905041503 | 26 | 134 | 0.0 | 0.0 | 0.00 | 6.10 | 0.00 | 94 | 1016.2 |
| 20260905041348 | 27 | 134 | 0.0 | 0.0 | 0.00 | 6.10 | 0.00 | 94 | 1016.4 |
| 20260905040845 | 26 | 134 | 0.0 | 0.0 | 0.00 | 6.10 | 0.00 | 94 | 1016.3 |
| 20260905040321 | 26 | 134 | 0.0 | 0.0 | 0.00 | 6.10 | 0.00 | 94 | 1016.3 |
| 20260905040057 | 26 | 134 | 0.0 | 0.0 | 0.00 | 6.10 | 0.00 | 94 | 1016.2 |
| 20260905035818 | 26 | 134 | 0.0 | 0.0 | 0.00 | 6.10 | 6.10 | 94 | 1016.3 |
| 20260905035315 | 26 | 134 | 0.0 | 0.0 | 0.00 | 6.10 | 6.10 | 94 | 1016.3 |
| 20260905034832 | 26 | 134 | 0.0 | 0.0 | 0.00 | 6.10 | 6.10 | 94 | 1016.4 |
| 20260905034541 | 26 | 134 | 0.0 | 0.0 | 0.00 | 6.10 | 6.10 | 94 | 1016.3 |
| 20260905034329 | 26 | 134 | 0.0 | 0.0 | 0.00 | 6.10 | 6.10 | 94 | 1016.5 |
| 20260905033825 | 27 | 134 | 0.0 | 0.0 | 0.00 | 6.10 | 6.10 | 94 | 1016.4 |
| 20260905033324 | 27 | 134 | 0.0 | 0.0 | 0.00 | 6.10 | 6.10 | 94 | 1016.4 |
| 20260905033100 | 26 | 134 | 0.0 | 0.0 | 0.00 | 6.10 | 6.10 | 94 | 1016.4 |
| 20260905033002 | 26 | 134 | 0.0 | 0.0 | 0.00 | 6.10 | 6.10 | 94 | 1016.4 |
| 20260905032819 | 27 | 134 | 0.0 | 0.0 | 0.00 | 6.10 | 6.10 | 94 | 1016.6 |
| 20260905032316 | 26 | 134 | 0.0 | 0.0 | 0.00 | 6.10 | 6.10 | 94 | 1016.5 |
| 20260905031835 | 27 | 134 | 0.0 | 0.0 | 0.00 | 6.10 | 6.10 | 94 | 1016.5 |
| 20260905031548 | 26 | 134 | 0.0 | 0.0 | 0.00 | 6.10 | 6.10 | 94 | 1016.4 |
| 20260905031328 | 27 | 134 | 0.0 | 0.0 | 0.00 | 6.10 | 6.10 | 94 | 1016.5 |
| 20260905030824 | 27 | 134 | 0.0 | 0.0 | 0.00 | 6.10 | 6.10 | 94 | 1016.6 |
| 20260905030319 | 27 | 134 | 0.0 | 0.0 | 0.00 | 6.10 | 6.10 | 94 | 1016.6 |
| 20260905030016 | 26 | 134 | 0.0 | 0.0 | 0.00 | 6.10 | 6.10 | 94 | 1016.5 |
| 20260905025819 | 27 | 134 | 0.0 | 0.0 | 0.00 | 6.10 | 6.10 | 94 | 1016.6 |
| 20260905025316 | 27 | 134 | 0.0 | 0.0 | 0.00 | 6.10 | 6.10 | 94 | 1016.6 |
| 20260905024833 | 27 | 134 | 0.0 | 0.0 | 0.00 | 6.10 | 6.10 | 94 | 1016.5 |
| 20260905024539 | 26 | 134 | 0.0 | 0.0 | 0.00 | 6.10 | 6.10 | 94 | 1016.5 |
| 20260905024348 | 27 | 134 | 0.0 | 0.0 | 0.00 | 6.10 | 6.10 | 94 | 1016.6 |
| 20260905023825 | 27 | 134 | 0.0 | 0.0 | 0.00 | 6.10 | 6.10 | 94 | 1016.6 |
| 20260905023324 | 26 | 133 | 0.0 | 0.0 | 0.00 | 6.10 | 6.10 | 94 | 1016.6 |
| 20260905023006 | 26 | 134 | 0.0 | 0.0 | 0.00 | 6.10 | 6.10 | 94 | 1016.5 |
| 20260905022841 | 27 | 134 | 0.0 | 0.0 | 0.00 | 6.10 | 6.10 | 94 | 1016.7 |
| 20260905022317 | 27 | 134 | 0.0 | 0.0 | 0.00 | 6.10 | 6.10 | 94 | 1016.8 |
| 20260905021814 | 26 | 134 | 0.0 | 0.0 | 0.00 | 6.10 | 6.10 | 94 | 1016.7 |
| 20260905021526 | 26 | 134 | 0.0 | 0.0 | 0.00 | 6.10 | 6.10 | 94 | 1016.6 |
| 20260905021332 | 26 | 134 | 0.0 | 0.0 | 0.00 | 6.10 | 6.10 | 94 | 1016.6 |
| 20260905020830 | 26 | 134 | 0.0 | 0.0 | 0.00 | 6.10 | 6.10 | 93 | 1016.7 |
| 20260905020328 | 27 | 134 | 0.0 | 0.0 | 0.00 | 6.10 | 6.10 | 93 | 1016.7 |
| 20260905020021 | 26 | 134 | 0.0 | 0.0 | 0.00 | 6.10 | 6.10 | 94 | 1016.6 |
| 20260905015826 | 27 | 134 | 0.0 | 0.0 | 0.00 | 6.10 | 6.10 | 93 | 1016.6 |
| 20260905015324 | 27 | 134 | 0.0 | 0.0 | 0.00 | 6.10 | 6.10 | 93 | 1016.5 |
| 20260905014821 | 27 | 134 | 0.0 | 0.0 | 0.00 | 6.10 | 6.10 | 93 | 1016.6 |
| 20260905014558 | 26 | 134 | 0.0 | 0.0 | 0.00 | 6.10 | 6.10 | 93 | 1016.5 |
| 20260905014317 | 27 | 134 | 0.0 | 0.0 | 0.00 | 6.10 | 6.10 | 93 | 1016.5 |
| 20260905013814 | 27 | 134 | 0.0 | 0.0 | 0.00 | 6.10 | 6.10 | 93 | 1016.5 |
| 20260905013332 | 27 | 134 | 0.0 | 0.0 | 0.00 | 6.10 | 6.10 | 93 | 1016.5 |
| 20260905013040 | 26 | 134 | 0.0 | 0.0 | 0.00 | 6.10 | 6.10 | 93 | 1016.4 |
| 20260905012849 | 27 | 133 | 0.0 | 0.0 | 0.00 | 6.10 | 6.10 | 93 | 1016.4 |
| 20260905012325 | 27 | 134 | 0.0 | 0.0 | 0.00 | 6.10 | 6.10 | 93 | 1016.3 |
| 20260905011841 | 27 | 134 | 0.0 | 0.0 | 0.00 | 6.10 | 6.10 | 93 | 1016.3 |
| 20260905011539 | 27 | 134 | 0.0 | 0.0 | 0.00 | 6.10 | 6.10 | 93 | 1016.2 |
| 20260905011317 | 27 | 134 | 0.0 | 0.0 | 0.00 | 6.10 | 6.10 | 93 | 1016.3 |
| 20260905010815 | 27 | 134 | 0.0 | 0.0 | 0.00 | 6.10 | 6.10 | 93 | 1016.3 |
| 20260905010334 | 27 | 134 | 0.0 | 0.0 | 0.00 | 6.10 | 6.10 | 93 | 1016.3 |
| 20260905010027 | 27 | 134 | 0.0 | 0.0 | 0.00 | 6.10 | 6.10 | 93 | 1016.1 |
| 20260905005831 | 27 | 134 | 0.0 | 0.0 | 0.00 | 6.10 | 6.10 | 93 | 1016.2 |
| 20260905005327 | 27 | 134 | 0.0 | 0.0 | 0.00 | 6.10 | 6.10 | 93 | 1016.1 |
| 20260905004825 | 27 | 134 | 0.0 | 0.0 | 0.00 | 6.10 | 6.10 | 93 | 1015.9 |
| 20260905004517 | 27 | 134 | 0.0 | 0.0 | 0.00 | 6.10 | 6.10 | 93 | 1015.7 |
| 20260905004320 | 27 | 134 | 0.0 | 0.0 | 0.00 | 6.10 | 6.10 | 93 | 1015.9 |
| 20260905003819 | 27 | 134 | 0.0 | 0.0 | 0.00 | 6.10 | 6.10 | 93 | 1015.8 |
| 20260905003317 | 27 | 134 | 0.0 | 0.0 | 0.00 | 6.10 | 6.10 | 93 | 1015.9 |
| 20260905003040 | 27 | 134 | 0.0 | 0.0 | 0.00 | 6.10 | 6.10 | 93 | 1015.8 |
| 20260905002834 | 27 | 134 | 0.0 | 0.0 | 0.00 | 6.10 | 6.10 | 92 | 1015.9 |
| 20260905002330 | 27 | 134 | 0.0 | 0.0 | 0.00 | 6.10 | 6.10 | 92 | 1015.9 |
| 20260905001827 | 27 | 133 | 0.0 | 0.0 | 0.00 | 6.10 | 6.10 | 92 | 1015.9 |
| 20260905001532 | 27 | 134 | 0.0 | 0.0 | 0.00 | 6.10 | 6.10 | 92 | 1015.6 |
| 20260905001325 | 27 | 134 | 0.0 | 0.0 | 0.00 | 6.10 | 6.10 | 92 | 1015.7 |
| 20260905000821 | 27 | 134 | 0.0 | 0.0 | 0.00 | 6.10 | 6.10 | 92 | 1015.6 |
| 20260905000319 | 27 | 134 | 0.0 | 0.0 | 0.00 | 6.10 | 6.10 | 92 | 1015.7 |
| 20260905000020 | 27 | 134 | 0.0 | 0.0 | 0.00 | 6.10 | 6.10 | 92 | 1015.6 |
| 20260904235836 | 27 | 134 | 0.0 | 0.0 | 0.00 | 6.10 | 6.10 | 92 | 1015.7 |
| 20260904235329 | 27 | 134 | 0.0 | 0.0 | 0.00 | 6.10 | 6.10 | 92 | 1015.6 |
| 20260904234827 | 27 | 134 | 0.0 | 0.0 | 0.00 | 6.10 | 6.10 | 92 | 1015.6 |
| 20260904234547 | 27 | 134 | 0.0 | 0.0 | 0.00 | 6.10 | 6.10 | 92 | 1015.5 |
| 20260904234323 | 27 | 134 | 0.0 | 0.0 | 0.00 | 6.10 | 6.10 | 92 | 1015.4 |
| 20260904233841 | 27 | 133 | 0.0 | 0.0 | 0.00 | 6.10 | 6.10 | 92 | 1015.4 |
| 20260904233317 | 27 | 134 | 0.0 | 0.0 | 0.00 | 6.10 | 6.10 | 92 | 1015.3 |
| 20260904233038 | 27 | 133 | 0.0 | 0.0 | 0.05 | 6.10 | 6.10 | 91 | 1015.1 |
| 20260904232835 | 27 | 134 | 0.0 | 0.0 | 0.05 | 6.10 | 6.10 | 91 | 1015.3 |
| 20260904232330 | 27 | 134 | 0.0 | 0.0 | 0.05 | 6.10 | 6.10 | 91 | 1015.2 |
| 20260904231848 | 27 | 134 | 0.0 | 0.0 | 0.05 | 6.10 | 6.10 | 91 | 1015.1 |
| 20260904231541 | 27 | 134 | 0.0 | 0.0 | 0.05 | 6.10 | 6.10 | 91 | 1015.0 |
| 20260904231323 | 27 | 134 | 0.0 | 1.6 | 0.05 | 6.10 | 6.10 | 91 | 1015.1 |
| 20260904230822 | 27 | 133 | 0.0 | 1.6 | 0.05 | 6.10 | 6.10 | 92 | 1015.0 |
| 20260904230322 | 27 | 132 | 0.0 | 1.6 | 0.05 | 6.10 | 6.10 | 92 | 1014.9 |
| 20260904230008 | 27 | 122 | 0.0 | 0.0 | 0.05 | 6.10 | 6.10 | 92 | 1014.8 |
| 20260904225819 | 27 | 122 | 0.0 | 0.0 | 0.05 | 6.10 | 6.10 | 92 | 1014.9 |
| 20260904225318 | 27 | 116 | 0.0 | 0.0 | 0.05 | 6.10 | 6.10 | 92 | 1014.9 |
| 20260904224817 | 27 | 116 | 0.0 | 0.0 | 0.05 | 6.10 | 6.10 | 92 | 1014.9 |
| 20260904224609 | 27 | 116 | 0.0 | 1.6 | 0.05 | 6.10 | 6.10 | 92 | 1014.8 |
| 20260904224316 | 27 | 116 | 0.0 | 1.6 | 0.05 | 6.10 | 6.10 | 92 | 1014.9 |
| 20260904223816 | 27 | 116 | 0.0 | 3.2 | 0.05 | 6.10 | 6.10 | 92 | 1015.0 |
| 20260904223315 | 26 | 117 | 1.6 | 3.2 | 0.05 | 6.10 | 6.10 | 92 | 1015.1 |
| 20260904223040 | 26 | 131 | 0.0 | 3.2 | 0.00 | 6.05 | 6.07 | 92 | 1015.1 |
| 20260904222833 | 26 | 97 | 0.0 | 0.0 | 0.03 | 6.05 | 6.05 | 92 | 1015.2 |
| 20260904222331 | 26 | 97 | 0.0 | 0.0 | 0.08 | 6.05 | 6.05 | 92 | 1015.2 |
| 20260904221831 | 26 | 97 | 0.0 | 0.0 | 0.25 | 6.05 | 6.05 | 92 | 1015.4 |
| 20260904221533 | 26 | 97 | 0.0 | 0.0 | 0.36 | 6.05 | 6.05 | 92 | 1015.3 |
| 20260904221330 | 26 | 97 | 0.0 | 0.0 | 0.43 | 6.05 | 6.05 | 92 | 1015.4 |
| 20260904220829 | 26 | 97 | 0.0 | 0.0 | 0.64 | 6.05 | 6.05 | 92 | 1015.3 |
| 20260904220326 | 26 | 97 | 0.0 | 0.0 | 0.91 | 6.05 | 6.05 | 92 | 1015.3 |
| 20260904220055 | 26 | 97 | 0.0 | 0.0 | 1.17 | 6.05 | 6.05 | 92 | 1015.3 |
| 20260904215823 | 26 | 97 | 0.0 | 0.0 | 1.35 | 6.05 | 6.05 | 92 | 1015.4 |
| 20260904215322 | 26 | 97 | 0.0 | 0.0 | 1.52 | 6.05 | 6.05 | 92 | 1015.2 |
| 20260904214840 | 26 | 97 | 0.0 | 3.2 | 2.06 | 6.05 | 6.05 | 92 | 1015.2 |
| 20260904214513 | 26 | 97 | 0.0 | 3.2 | 2.72 | 6.05 | 6.05 | 92 | 1015.2 |
| 20260904214318 | 26 | 97 | 0.0 | 3.2 | 3.05 | 6.05 | 6.05 | 92 | 1015.2 |
| 20260904213815 | 26 | 158 | 0.0 | 0.0 | 3.53 | 6.05 | 6.05 | 91 | 1015.3 |
| 20260904213334 | 26 | 158 | 0.0 | 0.0 | 3.61 | 6.05 | 6.05 | 91 | 1015.3 |
| 20260904213004 | 26 | 158 | 0.0 | 0.0 | 3.61 | 6.05 | 6.05 | 90 | 1015.2 |
| 20260904212831 | 26 | 158 | 0.0 | 0.0 | 3.58 | 6.02 | 6.02 | 90 | 1015.2 |
| 20260904212329 | 26 | 148 | 0.0 | 0.0 | 3.53 | 5.97 | 5.97 | 88 | 1015.3 |
| 20260904211827 | 25 | 148 | 0.0 | 6.4 | 3.35 | 5.79 | 5.79 | 87 | 1015.5 |
| 20260904211557 | 25 | 148 | 0.0 | 6.4 | 3.25 | 5.69 | 5.69 | 87 | 1015.5 |
| 20260904211325 | 25 | 148 | 0.0 | 6.4 | 3.17 | 5.61 | 5.61 | 87 | 1015.7 |
| 20260904210823 | 25 | 134 | 0.0 | 14.5 | 2.92 | 5.36 | 5.36 | 86 | 1015.9 |
| 20260904210321 | 25 | 152 | 4.8 | 16.1 | 2.64 | 5.08 | 5.08 | 85 | 1016.0 |
| 20260904210041 | 25 | 278 | 4.8 | 16.1 | 2.41 | 4.85 | 4.85 | 85 | 1015.7 |
| 20260904205819 | 26 | 184 | 6.4 | 17.7 | 2.24 | 4.67 | 4.67 | 86 | 1015.9 |
| 20260904205317 | 27 | 103 | 6.4 | 17.7 | 2.08 | 4.52 | 4.52 | 88 | 1016.0 |
| 20260904204833 | 27 | 142 | 9.7 | 25.7 | 1.55 | 3.99 | 3.99 | 87 | 1016.2 |
| 20260904204523 | 27 | 126 | 12.9 | 25.7 | 0.71 | 3.17 | 3.33 | 86 | 1016.1 |
| 20260904204330 | 27 | 129 | 19.3 | 25.7 | 0.51 | 2.95 | 3.00 | 87 | 1016.1 |
| 20260904203827 | 28 | 42 | 4.8 | 9.7 | 0.10 | 2.51 | 2.51 | 87 | 1015.7 |
| 20260904203347 | 28 | 28 | 4.8 | 8.0 | 0.15 | 2.44 | 2.44 | 85 | 1015.6 |
| 20260904203050 | 28 | 1 | 3.2 | 8.0 | 0.33 | 2.44 | 2.44 | 85 | 1015.5 |
| 20260904202822 | 28 | 333 | 3.2 | 8.0 | 0.71 | 2.44 | 2.44 | 85 | 1015.8 |
| 20260904202321 | 28 | 50 | 3.2 | 11.3 | 1.63 | 2.44 | 2.44 | 84 | 1015.9 |
| 20260904201818 | 29 | 27 | 3.2 | 11.3 | 2.31 | 2.44 | 2.44 | 84 | 1015.9 |
| 20260904201537 | 28 | 342 | 6.4 | 11.3 | 2.44 | 2.44 | 2.44 | 84 | 1015.8 |
| 20260904201359 | 29 | 352 | 4.8 | 11.3 | 2.44 | 2.44 | 2.44 | 84 | 1016.1 |
| 20260904200855 | 28 | 358 | 3.2 | 8.0 | 2.44 | 2.44 | 2.44 | 85 | 1016.2 |
| 20260904200332 | 28 | 352 | 4.8 | 12.9 | 2.44 | 2.44 | 2.44 | 85 | 1016.3 |
| 20260904200033 | 28 | 332 | 4.8 | 12.9 | 2.44 | 2.44 | 2.44 | 86 | 1016.1 |
| 20260904195828 | 28 | 349 | 6.4 | 12.9 | 2.44 | 2.44 | 2.44 | 87 | 1016.1 |
| 20260904195327 | 27 | 44 | 0.0 | 1.6 | 2.44 | 2.44 | 2.44 | 88 | 1015.9 |
| 20260904194825 | 27 | 50 | 0.0 | 3.2 | 2.44 | 2.44 | 2.44 | 88 | 1016.1 |
| 20260904194524 | 27 | 133 | 0.0 | 4.8 | 2.44 | 2.44 | 2.44 | 88 | 1016.1 |
| 20260904194324 | 27 | 55 | 0.0 | 11.3 | 2.44 | 2.44 | 2.44 | 87 | 1016.2 |
| 20260904193820 | 27 | 71 | 1.6 | 11.3 | 2.41 | 2.41 | 2.41 | 84 | 1016.2 |
| 20260904193318 | 26 | 215 | 4.8 | 11.3 | 2.29 | 2.29 | 2.29 | 83 | 1016.2 |
| 20260904193011 | 26 | 169 | 3.2 | 30.6 | 1.85 | 1.85 | 2.01 | 82 | 1016.1 |
| 20260904192815 | 27 | 347 | 4.8 | 33.8 | 1.73 | 1.73 | 1.73 | 81 | 1016.3 |
| 20260904192333 | 28 | 155 | 8.0 | 33.8 | 0.81 | 0.81 | 0.81 | 81 | 1016.7 |
| 20260904191829 | 31 | 105 | 9.7 | 19.3 | 0.13 | 0.13 | 0.13 | 82 | 1016.2 |
| 20260904191553 | 32 | 133 | 11.3 | 17.7 | 0.00 | 0.00 | 0.00 | 81 | 1016.0 |
| 20260904191346 | 32 | 117 | 11.3 | 17.7 | 0.00 | 0.00 | 0.00 | 80 | 1015.9 |
| 20260904190822 | 32 | 135 | 6.4 | 11.3 | 0.00 | 0.00 | 0.00 | 80 | 1016.0 |
| 20260904190321 | 32 | 145 | 4.8 | 9.7 | 0.00 | 0.00 | 0.00 | 80 | 1016.1 |
| 20260904190024 | 32 | 112 | 4.8 | 9.7 | 0.00 | 0.00 | 0.00 | 79 | 1016.1 |
| 20260904185818 | 32 | 129 | 4.8 | 9.7 | 0.00 | 0.00 | 0.00 | 79 | 1016.2 |
| 20260904185315 | 32 | 127 | 4.8 | 12.9 | 0.00 | 0.00 | 0.00 | 79 | 1016.1 |
| 20260904184830 | 32 | 164 | 4.8 | 12.9 | 0.00 | 0.00 | 0.00 | 79 | 1016.1 |
| 20260904184505 | 32 | 128 | 3.2 | 11.3 | 0.00 | 0.00 | 0.00 | 78 | 1016.2 |
| 20260904184327 | 32 | 119 | 6.4 | 11.3 | 0.00 | 0.00 | 0.00 | 78 | 1016.4 |
| 20260904183824 | 32 | 127 | 6.4 | 11.3 | 0.00 | 0.00 | 0.00 | 78 | 1016.5 |
| 20260904183343 | 32 | 121 | 6.4 | 11.3 | 0.00 | 0.00 | 0.00 | 79 | 1016.5 |
| 20260904183028 | 32 | 111 | 4.8 | 11.3 | 0.00 | 0.00 | 0.00 | 78 | 1016.3 |
| 20260904182840 | 32 | 153 | 6.4 | 16.1 | 0.00 | 0.00 | 0.00 | 78 | 1016.5 |
| 20260904182357 | 32 | 153 | 4.8 | 16.1 | 0.00 | 0.00 | 0.00 | 79 | 1016.3 |
| 20260904181852 | 32 | 141 | 11.3 | 17.7 | 0.00 | 0.00 | 0.00 | 78 | 1016.2 |
| 20260904181530 | 32 | 150 | 8.0 | 17.7 | 0.00 | 0.00 | 0.00 | 78 | 1016.1 |
| 20260904181329 | 32 | 127 | 9.7 | 17.7 | 0.00 | 0.00 | 0.00 | 78 | 1016.2 |
| 20260904180847 | 32 | 150 | 6.4 | 17.7 | 0.00 | 0.00 | 0.00 | 78 | 1016.2 |
| 20260904180342 | 32 | 148 | 6.4 | 17.7 | 0.00 | 0.00 | 0.00 | 78 | 1016.3 |
| 20260904180041 | 32 | 143 | 9.7 | 17.7 | 0.00 | 0.00 | 0.00 | 77 | 1016.4 |
| 20260904175819 | 33 | 126 | 8.0 | 16.1 | 0.00 | 0.00 | 0.00 | 76 | 1016.5 |
| 20260904175316 | 33 | 174 | 1.6 | 8.0 | 0.00 | 0.00 | 0.00 | 76 | 1016.5 |
| 20260904174832 | 33 | 96 | 0.0 | 6.4 | 0.00 | 0.00 | 0.00 | 76 | 1016.6 |
| 20260904174525 | 33 | 138 | 0.0 | 6.4 | 0.00 | 0.00 | 0.00 | 76 | 1016.5 |
| 20260904174344 | 33 | 129 | 3.2 | 6.4 | 0.00 | 0.00 | 0.00 | 75 | 1016.6 |
| 20260904173820 | 33 | 156 | 1.6 | 9.7 | 0.00 | 0.00 | 0.00 | 75 | 1016.8 |
| 20260904173338 | 33 | 127 | 3.2 | 9.7 | 0.00 | 0.00 | 0.00 | 75 | 1016.8 |
| 20260904173043 | 33 | 134 | 4.8 | 14.5 | 0.00 | 0.00 | 0.00 | 76 | 1016.8 |
| 20260904172855 | 33 | 180 | 6.4 | 14.5 | 0.00 | 0.00 | 0.00 | 77 | 1016.9 |
| 20260904172332 | 33 | 137 | 6.4 | 14.5 | 0.00 | 0.00 | 0.00 | 77 | 1017.0 |
| 20260904171828 | 33 | 113 | 3.2 | 12.9 | 0.00 | 0.00 | 0.00 | 76 | 1017.0 |